HO-113
1 50466U 21131B   25351.51027568  .00000540  00000-0  18119-3 0  9991
2 50466  98.5051  79.9076 0003106 289.1020  70.9832 14.41119140208949
SNUGLITE 2
1 52899U 22065F   25351.38192909  .00001120  00000-0  22361-3 0  9996
2 52899  98.1931 131.8886 0006655 228.6881 131.3749 14.63849283184399
UmKA 1 (RS40S)
1 57172U 23091G   25351.61948444  .00005533  00000-0  27298-3 0  9990
2 57172  97.5342  46.0633 0014362  37.6246 322.5989 15.18235083136431
CubeBel-2 (EU11S)
1 57175U 23091K   25351.57953926  .00011228  00000-0  46327-3 0  9991
2 57175  97.5340  48.5542 0011724  40.6758 319.5352 15.24154549136590
RS-38S
1 57189U 23091Z   25351.61291063  .00012657  00000-0  44447-3 0  9996
2 57189  97.5366  53.0802 0008334   6.5189 353.6158 15.29509171136879
SONATE-2
1 59112U 24043Q   25351.63937270  .00022259  00000-0  46733-3 0  9990
2 59112  97.5328 128.0737 0009142 144.8827 215.3026 15.45333885 99734
MO-122
1 60209U 24125G   25351.57690300  .00026652  00000-0  53481-3 0  9992
2 60209  97.2516 201.9530 0014486 159.9160 200.2663 15.46548371 81353
GRBBeta
1 60237U 24128C   25351.60225951  .00004219  00000-0  30226-3 0  9993
2 60237  61.9892 132.5441 0056067  97.5375 263.2091 15.04804950 78920
Curium One
1 60242U 24128H   25351.63319465  .00007634  00000-0  47693-3 0  9996
2 60242  61.9786 127.1960 0055761  94.3104 266.4364 15.08983147 79029
ROBUSTA-3A
1 60243U 24128J   25351.63875170  .00006544  00000-0  41872-3 0  9999
2 60243  61.9859 128.7317 0055935  91.8250 268.9251 15.08291037 79001
CatSat
1 60246U 24125J   25351.54585028  .00030874  00000-0  73627-3 0  9995
2 60246  97.2310 198.8795 0034230 127.1340 233.3043 15.40882717 79264
HYPERVIEW-1G (RS66S)
1 61772U 24199AP  25351.65539485  .00034495  00000-0  65368-3 0  9995
2 61772  97.3209 221.1530 0008152 214.5223 145.5499 15.48237110106370
AO-123
1 61781U 24199AY  25351.63667150  .00009157  00000-0  29758-3 0  9994
2 61781  97.3251 217.0330 0012970 235.8695 124.1317 15.32053577106098
ZIMSAT 2
1 61783U 24199BA  25351.62509734  .00199264  00000-0  12907-2 0  9994
2 61783  97.3076 224.8387 0004558 163.8235 196.3176 15.75451947109778
HADES-R (SO-124)
1 62690U 25009CK  25351.51430377  .00144472  00000-0  17305-2 0  9995
2 62690  97.3881  74.3245 0001224 263.6183  96.4935 15.60466474 51526
HYDRA-T
1 62692U 25009CM  25351.16648469  .00171856  00000-0  18980-2 0  9997
2 62692  97.3870  74.1778 0001597 274.5660  85.5415 15.62491394 51487
JINJUSat 1B
1 63210U 25052A   25351.63542522  .00013074  00000-0  49786-3 0  9993
2 63210  97.4208 243.7604 0005066  35.0892 325.0680 15.26847516 42335
NUSHSAT 1
1 63211U 25052B   25351.62734268  .00015083  00000-0  55539-3 0  9998
2 63211  97.4191 243.8806 0005209  38.4932 321.6678 15.27926743 42344
TEVEL2-4
1 63213U 25052D   25351.63036763  .00014147  00000-0  53206-3 0  9995
2 63213  97.4111 243.4254 0004892  52.8690 307.2995 15.27242652 42330
TEVEL2-5
1 63214U 25052E   25351.63606947  .00014159  00000-0  53373-3 0  9991
2 63214  97.4109 243.4181 0004842  53.1928 306.9754 15.27166935 42338
TEVEL2-6
1 63215U 25052F   25351.64352877  .00014634  00000-0  55229-3 0  9993
2 63215  97.4112 243.4137 0004932  53.0540 307.1150 15.27119441 42336
TEVEL2-1
1 63217U 25052H   25351.62172047  .00013371  00000-0  51001-3 0  9993
2 63217  97.4084 243.1987 0005266  61.1781 298.9986 15.26786606 42329
TEVEL2-3
1 63218U 25052J   25351.62085005  .00013685  00000-0  52155-3 0  9990
2 63218  97.4084 243.2036 0005304  62.0175 298.1600 15.26809787 42327
TEVEL2-2
1 63219U 25052K   25351.16370971  .00014302  00000-0  54545-3 0  9991
2 63219  97.4085 242.7438 0005278  62.4349 297.7425 15.26775541 42258
TEVEL2-9
1 63237U 25052AD  25351.65594251  .00013579  00000-0  54136-3 0  9995
2 63237  97.4148 242.9325 0009221  68.3398 291.8821 15.25281330 42292
TEVEL2-7
1 63238U 25052AE  25351.60473455  .00012762  00000-0  51137-3 0  9994
2 63238  97.4149 242.8549 0009418  68.6120 291.6122 15.25125781 42283
TEVEL2-8
1 63239U 25052AF  25351.61045372  .00012589  00000-0  50487-3 0  9993
2 63239  97.4151 242.8451 0009344  68.8322 291.3914 15.25100266 42280
HYDRA-W
1 63490U 25052BL  25351.63463414  .00055851  00000-0  12997-2 0  9997
2 63490  97.4065 245.4871 0011325  60.1420 300.0951 15.42049147 42473
HADES-ICM (SO-125)
1 63492U 25052BN  25351.63576864  .00047554  00000-0  11852-2 0  9993
2 63492  97.4088 245.2057 0011589  62.5205 297.7218 15.40008167 42454
Dragonfly
1 65729U 98067XH  25351.56750399  .00160588  00000-0  11078-2 0  9996
2 65729  51.6243 111.0116 0007206 308.5140  51.5212 15.73531298 13924
RSP-03
1 65732U 98067XL  25351.57888421  .00115432  00000-0  93703-3 0  9993
2 65732  51.6262 111.8477 0005617 283.4279  76.6092 15.69845633 13925
GHS-01
1 65733U 98067XM  25351.63632508  .00211757  00000-0  12494-2 0  9998
2 65733  51.6275 109.9788 0007868 312.8661  47.1678 15.76951537 13950
BOTAN
1 65942U 98067XP  25351.64011105  .00095351  00000-0  98816-3 0  9998
2 65942  51.6282 114.5172 0002857 279.3266  80.7406 15.63897894 10635
BEE-1000
1 66650U 25274A   25351.51514048  .00001183  00000-0  12314-3 0  9994
2 66650  97.7397 278.6151 0010590 233.7186 126.3056 14.91677845  3112
SPIRONE
1 66657U 25274H   25351.30330981  .00002137  00000-0  21355-3 0  9995
2 66657  97.7396 278.4303 0010656 258.6573 101.3449 14.92482598  3089
K-HERO
1 66660U 25274L   25351.56437213  .00002532  00000-0  24878-3 0  9995
2 66660  97.7401 278.7048 0012505 262.9512  97.0285 14.92989761  3123
SNUGLITE-III DURI
1 66661U 25274M   25351.36128468  .00002380  00000-0  23340-3 0  9997
2 66661  97.7400 278.5088 0013108 265.0248  94.9476 14.93123648  3094
SilverSat
1 66909U 98067XV  25351.61959638  .00058177  00000-0  93996-3 0  9990
2 66909  51.6309 118.1253 0003976 257.1224 102.9322 15.52286710  2373
CEVROSAT1
1 98526U 25248E   25313.13142326  .00000000  00000-0  19360-3 0    02
2 98526  45.4084 218.4764 0001315 254.8982 242.1062 15.17981583    02
